Wetterdaten: aktuell Mittwoch, 18.09.2019 07:20
Datum Zeit Temp. I. Temp. A. Feuchte A. Luftdruck Regen Wind Richtung Richtung Sonnenschein Taupunkt Windchill Windben
18.09.2019 07:20 20,6 C 6,6 C 83 % 1017,4 hPa 0,0 l/m 4,8 km/h (1 Bft) NW 315 0 min 3,9 C 6,6 C 3,9 km/h (1 Bft)
18.09.2019 07:10 20,6 C 6,6 C 83 % 1017,4 hPa 0,0 l/m 5,0 km/h (1 Bft) S-SW 202 0 min 3,9 C 6,6 C 10,3 km/h (2 Bft)
18.09.2019 07:00 20,6 C 6,4 C 82 % 1017,2 hPa 0,0 l/m 4,7 km/h (1 Bft) W-NW 292 0 min 3,6 C 6,4 C 8,7 km/h (2 Bft)
18.09.2019 06:50 20,7 C 6,5 C 82 % 1017,2 hPa 0,0 l/m 5,0 km/h (1 Bft) W-SW 247 0 min 3,7 C 6,5 C 9,8 km/h (2 Bft)
18.09.2019 06:40 20,7 C 6,6 C 82 % 1017,0 hPa 0,0 l/m 6,3 km/h (2 Bft) S 180 0 min 3,8 C 6,6 C 10,5 km/h (2 Bft)
18.09.2019 06:30 20,7 C 6,6 C 82 % 1017,0 hPa 0,0 l/m 6,0 km/h (2 Bft) W-SW 247 0 min 3,8 C 6,6 C 8,5 km/h (2 Bft)
18.09.2019 06:20 20,7 C 6,6 C 82 % 1016,7 hPa 0,0 l/m 6,6 km/h (2 Bft) W-SW 247 0 min 3,8 C 6,5 C 9,8 km/h (2 Bft)
18.09.2019 06:10 20,7 C 6,7 C 82 % 1016,7 hPa 0,0 l/m 6,8 km/h (2 Bft) NW 315 0 min 3,8 C 6,4 C 6,1 km/h (2 Bft)
18.09.2019 06:00 20,8 C 6,7 C 81 % 1016,8 hPa 0,0 l/m 5,6 km/h (1 Bft) W-SW 247 0 min 3,7 C 6,7 C 6,4 km/h (2 Bft)
18.09.2019 05:50 20,8 C 6,9 C 81 % 1016,8 hPa 0,0 l/m 6,9 km/h (2 Bft) W-NW 292 0 min 3,9 C 6,5 C 12,9 km/h (3 Bft)
18.09.2019 05:40 20,8 C 7,0 C 80 % 1016,5 hPa 0,0 l/m 6,3 km/h (2 Bft) W 270 0 min 3,8 C 7,0 C 13,5 km/h (3 Bft)
18.09.2019 05:30 20,8 C 7,1 C 80 % 1016,5 hPa 0,0 l/m 6,3 km/h (2 Bft) SW 225 0 min 3,9 C 7,1 C 7,4 km/h (2 Bft)
18.09.2019 05:20 20,8 C 7,0 C 80 % 1016,2 hPa 0,0 l/m 5,6 km/h (1 Bft) W-SW 247 0 min 3,8 C 7,0 C 4,3 km/h (1 Bft)
18.09.2019 05:10 20,8 C 7,1 C 79 % 1016,2 hPa 0,0 l/m 6,6 km/h (2 Bft) W 270 0 min 3,7 C 7,0 C 10,9 km/h (2 Bft)
18.09.2019 05:00 20,8 C 7,3 C 78 % 1016,2 hPa 0,0 l/m 6,4 km/h (2 Bft) W-SW 247 0 min 3,7 C 7,3 C 6,3 km/h (2 Bft)
18.09.2019 04:50 20,8 C 7,7 C 78 % 1016,2 hPa 0,0 l/m 5,8 km/h (2 Bft) W 270 0 min 4,1 C 7,7 C 10,3 km/h (2 Bft)
18.09.2019 04:40 20,9 C 7,7 C 78 % 1016,1 hPa 0,0 l/m 6,1 km/h (2 Bft) S 180 0 min 4,1 C 7,7 C 8,0 km/h (2 Bft)
18.09.2019 04:30 20,9 C 7,2 C 78 % 1016,1 hPa 0,0 l/m 6,6 km/h (2 Bft) W 270 0 min 3,6 C 7,1 C 8,5 km/h (2 Bft)
18.09.2019 04:20 20,9 C 7,2 C 78 % 1015,7 hPa 0,0 l/m 5,5 km/h (1 Bft) N-NO 22 0 min 3,6 C 7,2 C 7,1 km/h (2 Bft)
18.09.2019 04:10 20,9 C 7,2 C 77 % 1015,7 hPa 0,0 l/m 6,3 km/h (2 Bft) W-SW 247 0 min 3,4 C 7,2 C 7,6 km/h (2 Bft)
18.09.2019 04:00 20,9 C 7,2 C 76 % 1015,8 hPa 0,0 l/m 6,4 km/h (2 Bft) W 270 0 min 3,3 C 7,2 C 10,1 km/h (2 Bft)
18.09.2019 03:50 21,0 C 7,3 C 76 % 1015,8 hPa 0,0 l/m 4,8 km/h (1 Bft) NW 315 0 min 3,4 C 7,3 C 3,4 km/h (1 Bft)
18.09.2019 03:40 21,0 C 7,4 C 75 % 1015,6 hPa 0,0 l/m 5,6 km/h (1 Bft) W 270 0 min 3,3 C 7,4 C 4,8 km/h (1 Bft)
18.09.2019 03:30 21,0 C 7,6 C 75 % 1015,6 hPa 0,0 l/m 7,6 km/h (2 Bft) W 270 0 min 3,5 C 6,6 C 10,5 km/h (2 Bft)
18.09.2019 03:20 21,0 C 7,6 C 75 % 1015,3 hPa 0,0 l/m 6,8 km/h (2 Bft) W-NW 292 0 min 3,5 C 7,3 C 7,9 km/h (2 Bft)
18.09.2019 03:10 21,0 C 7,7 C 76 % 1015,3 hPa 0,0 l/m 5,8 km/h (2 Bft) W-SW 247 0 min 3,7 C 7,7 C 9,2 km/h (2 Bft)
18.09.2019 03:00 21,0 C 7,7 C 75 % 1015,0 hPa 0,0 l/m 6,4 km/h (2 Bft) W-SW 247 0 min 3,6 C 7,7 C 8,5 km/h (2 Bft)
18.09.2019 02:50 21,1 C 7,9 C 75 % 1015,0 hPa 0,0 l/m 6,1 km/h (2 Bft) W 270 0 min 3,7 C 7,9 C 8,2 km/h (2 Bft)
18.09.2019 02:40 21,1 C 8,1 C 75 % 1015,0 hPa 0,0 l/m 6,3 km/h (2 Bft) W-SW 247 0 min 3,9 C 8,1 C 6,0 km/h (2 Bft)
18.09.2019 02:30 21,1 C 8,3 C 74 % 1015,0 hPa 0,0 l/m 7,9 km/h (2 Bft) NW 315 0 min 3,9 C 7,1 C 17,2 km/h (3 Bft)
18.09.2019 02:20 21,1 C 8,3 C 74 % 1014,8 hPa 0,0 l/m 7,2 km/h (2 Bft) W-SW 247 0 min 3,9 C 7,7 C 12,7 km/h (3 Bft)
18.09.2019 02:10 21,1 C 8,5 C 74 % 1014,8 hPa 0,0 l/m 7,1 km/h (2 Bft) NW 315 0 min 4,1 C 8,0 C 6,1 km/h (2 Bft)
18.09.2019 02:00 21,2 C 8,5 C 74 % 1014,8 hPa 0,0 l/m 7,9 km/h (2 Bft) W-SW 247 0 min 4,1 C 7,4 C 7,4 km/h (2 Bft)
18.09.2019 01:50 21,2 C 8,7 C 73 % 1014,8 hPa 0,0 l/m 8,0 km/h (2 Bft) W 270 0 min 4,1 C 7,5 C 9,2 km/h (2 Bft)
18.09.2019 01:40 21,2 C 8,8 C 73 % 1014,6 hPa 0,0 l/m 8,7 km/h (2 Bft) NW 315 0 min 4,2 C 7,1 C 23,0 km/h (4 Bft)
18.09.2019 01:30 21,2 C 8,6 C 73 % 1014,6 hPa 0,0 l/m 6,9 km/h (2 Bft) W 270 0 min 4,0 C 8,2 C 4,8 km/h (1 Bft)
18.09.2019 01:20 21,2 C 8,4 C 73 % 1014,3 hPa 0,0 l/m 7,4 km/h (2 Bft) W-NW 292 0 min 3,8 C 7,6 C 4,8 km/h (1 Bft)
18.09.2019 01:10 21,2 C 8,5 C 73 % 1014,3 hPa 0,0 l/m 7,7 km/h (2 Bft) W-SW 247 0 min 3,9 C 7,5 C 21,1 km/h (4 Bft)
18.09.2019 01:00 21,3 C 8,3 C 73 % 1014,2 hPa 0,0 l/m 7,6 km/h (2 Bft) W 270 0 min 3,8 C 7,4 C 7,7 km/h (2 Bft)
18.09.2019 00:50 21,3 C 8,2 C 73 % 1014,2 hPa 0,0 l/m 7,7 km/h (2 Bft) W-SW 247 0 min 3,7 C 7,2 C 8,4 km/h (2 Bft)
18.09.2019 00:40 21,2 C 8,1 C 73 % 1014,1 hPa 0,0 l/m 8,0 km/h (2 Bft) N 360 0 min 3,6 C 6,9 C 12,2 km/h (2 Bft)
18.09.2019 00:30 21,4 C 8,2 C 73 % 1014,1 hPa 0,0 l/m 7,6 km/h (2 Bft) W 270 0 min 3,7 C 7,3 C 19,2 km/h (3 Bft)
18.09.2019 00:20 21,4 C 8,2 C 73 % 1014,1 hPa 0,0 l/m 8,5 km/h (2 Bft) NW 315 0 min 3,7 C 6,6 C 12,6 km/h (3 Bft)
18.09.2019 00:10 21,4 C 8,2 C 73 % 1014,1 hPa 0,0 l/m 8,2 km/h (2 Bft) S 180 0 min 3,7 C 6,8 C 4,0 km/h (1 Bft)
18.09.2019 00:00 21,4 C 8,3 C 73 % 1014,0 hPa 0,0 l/m 7,6 km/h (2 Bft) W-SW 247 0 min 3,8 C 7,4 C 6,9 km/h (2 Bft)
17.09.2019 23:50 21,5 C 8,3 C 73 % 1014,0 hPa 0,0 l/m 7,7 km/h (2 Bft) W-SW 247 0 min 3,8 C 7,3 C 8,7 km/h (2 Bft)
17.09.2019 23:40 21,6 C 8,5 C 72 % 1013,9 hPa 0,0 l/m 8,0 km/h (2 Bft) W-SW 247 0 min 3,7 C 7,3 C 13,2 km/h (3 Bft)
17.09.2019 23:30 21,6 C 8,4 C 73 % 1013,9 hPa 0,0 l/m 7,4 km/h (2 Bft) W 270 0 min 3,8 C 7,6 C 7,1 km/h (2 Bft)
17.09.2019 23:20 21,7 C 8,4 C 73 % 1013,6 hPa 0,0 l/m 6,4 km/h (2 Bft) NW 315 0 min 3,8 C 8,4 C 9,3 km/h (2 Bft)
17.09.2019 23:10 21,7 C 8,6 C 73 % 1013,6 hPa 0,0 l/m 8,2 km/h (2 Bft) N-NO 22 0 min 4,0 C 7,2 C 7,4 km/h (2 Bft)
17.09.2019 23:00 21,7 C 8,7 C 74 % 1013,5 hPa 0,0 l/m 7,9 km/h (2 Bft) W 270 0 min 4,3 C 7,6 C 10,6 km/h (2 Bft)
17.09.2019 22:50 21,7 C 8,7 C 76 % 1013,5 hPa 0,0 l/m 8,2 km/h (2 Bft) W 270 0 min 4,7 C 7,3 C 10,8 km/h (2 Bft)
17.09.2019 22:40 21,7 C 8,7 C 77 % 1013,2 hPa 0,0 l/m 7,2 km/h (2 Bft) SW 225 0 min 4,9 C 8,1 C 14,5 km/h (3 Bft)
17.09.2019 22:30 21,6 C 8,7 C 77 % 1013,2 hPa 0,0 l/m 6,1 km/h (2 Bft) W-SW 247 0 min 4,9 C 8,7 C 5,8 km/h (2 Bft)
17.09.2019 22:19 21,6 C 8,8 C 78 % 1013,2 hPa 0,0 l/m 7,1 km/h (2 Bft) W-SW 247 0 min 5,2 C 8,3 C 4,3 km/h (1 Bft)
17.09.2019 22:10 21,6 C 9,0 C 78 % 1013,2 hPa 0,0 l/m 8,4 km/h (2 Bft) W-SW 247 0 min 5,4 C 7,5 C 12,7 km/h (3 Bft)
17.09.2019 22:00 21,6 C 9,0 C 79 % 1012,9 hPa 0,0 l/m 7,2 km/h (2 Bft) W 270 0 min 5,6 C 8,4 C 10,9 km/h (2 Bft)
17.09.2019 21:50 21,6 C 9,2 C 79 % 1012,9 hPa 0,0 l/m 7,7 km/h (2 Bft) N 360 0 min 5,8 C 8,2 C 9,0 km/h (2 Bft)
17.09.2019 21:40 21,6 C 9,3 C 80 % 1012,8 hPa 0,0 l/m 8,2 km/h (2 Bft) W-SW 247 0 min 6,0 C 8,0 C 16,3 km/h (3 Bft)
17.09.2019 21:30 21,6 C 9,4 C 81 % 1012,8 hPa 0,0 l/m 8,0 km/h (2 Bft) W 270 0 min 6,3 C 8,2 C 12,6 km/h (3 Bft)
17.09.2019 21:20 21,6 C 9,5 C 81 % 1012,6 hPa 0,0 l/m 7,4 km/h (2 Bft) W 270 0 min 6,4 C 8,8 C 5,8 km/h (2 Bft)
17.09.2019 21:10 21,6 C 9,8 C 81 % 1012,6 hPa 0,0 l/m 7,2 km/h (2 Bft) W-SW 247 0 min 6,7 C 9,2 C 10,5 km/h (2 Bft)
17.09.2019 21:00 21,6 C 10,0 C 81 % 1012,1 hPa 0,0 l/m 6,9 km/h (2 Bft) W-SW 247 0 min 6,9 C 9,6 C 7,7 km/h (2 Bft)
17.09.2019 20:50 21,6 C 10,2 C 81 % 1012,1 hPa 0,0 l/m 7,6 km/h (2 Bft) W 270 0 min 7,1 C 9,3 C 12,2 km/h (2 Bft)
17.09.2019 20:40 21,6 C 10,5 C 81 % 1012,2 hPa 0,0 l/m 7,1 km/h (2 Bft) W-SW 247 0 min 7,4 C 10,0 C 11,1 km/h (2 Bft)
17.09.2019 20:30 21,5 C 10,8 C 80 % 1012,2 hPa 0,0 l/m 5,8 km/h (2 Bft) W 270 0 min 7,5 C 10,8 C 6,9 km/h (2 Bft)
17.09.2019 20:20 21,5 C 11,0 C 79 % 1012,1 hPa 0,0 l/m 6,0 km/h (2 Bft) W-NW 292 0 min 7,5 C 11,0 C 6,3 km/h (2 Bft)
17.09.2019 20:10 21,5 C 11,0 C 79 % 1012,1 hPa 0,0 l/m 5,6 km/h (1 Bft) W 270 0 min 7,5 C 11,0 C 9,7 km/h (2 Bft)
17.09.2019 20:00 21,5 C 11,0 C 79 % 1011,8 hPa 0,0 l/m 7,4 km/h (2 Bft) W 270 0 min 7,5 C 10,3 C 5,5 km/h (1 Bft)
17.09.2019 19:50 21,6 C 10,9 C 79 % 1011,8 hPa 0,0 l/m 8,7 km/h (2 Bft) W 270 0 min 7,4 C 9,4 C 11,4 km/h (2 Bft)
17.09.2019 19:40 21,6 C 10,9 C 79 % 1011,6 hPa 0,0 l/m 7,9 km/h (2 Bft) NW 315 0 min 7,4 C 9,9 C 8,5 km/h (2 Bft)
17.09.2019 19:30 21,6 C 11,0 C 78 % 1011,6 hPa 0,0 l/m 9,5 km/h (2 Bft) W 270 0 min 7,3 C 9,0 C 8,7 km/h (2 Bft)
17.09.2019 19:20 21,6 C 11,1 C 78 % 1011,2 hPa 0,0 l/m 7,7 km/h (2 Bft) W-SW 247 0 min 7,4 C 10,2 C 10,6 km/h (2 Bft)
17.09.2019 19:10 21,6 C 11,4 C 78 % 1011,2 hPa 0,0 l/m 9,2 km/h (2 Bft) W 270 0 min 7,7 C 9,6 C 8,4 km/h (2 Bft)
17.09.2019 19:00 21,6 C 11,5 C 79 % 1011,2 hPa 0,0 l/m 9,5 km/h (2 Bft) NW 315 0 min 8,0 C 9,5 C 9,5 km/h (2 Bft)
17.09.2019 18:50 21,6 C 11,5 C 79 % 1011,2 hPa 0,0 l/m 9,5 km/h (2 Bft) W-SW 247 0 min 8,0 C 9,5 C 10,1 km/h (2 Bft)
17.09.2019 18:40 21,6 C 11,5 C 79 % 1011,1 hPa 0,0 l/m 8,0 km/h (2 Bft) W-SW 247 0 min 8,0 C 10,4 C 17,1 km/h (3 Bft)
17.09.2019 18:30 21,6 C 11,6 C 78 % 1011,1 hPa 0,7 l/m 8,4 km/h (2 Bft) W-SW 247 0 min 7,9 C 10,3 C 11,6 km/h (2 Bft)
17.09.2019 18:20 21,7 C 11,7 C 77 % 1011,4 hPa 0,0 l/m 7,2 km/h (2 Bft) NW 315 0 min 7,8 C 11,2 C 12,6 km/h (3 Bft)
17.09.2019 18:10 21,8 C 12,1 C 73 % 1011,4 hPa 0,7 l/m 7,2 km/h (2 Bft) N-NW 337 0 min 7,4 C 11,6 C 5,6 km/h (1 Bft)
17.09.2019 18:00 21,8 C 12,9 C 67 % 1011,1 hPa 0,0 l/m 7,4 km/h (2 Bft) W-SW 247 0 min 6,9 C 12,3 C 10,1 km/h (2 Bft)
17.09.2019 17:50 21,8 C 13,5 C 63 % 1011,1 hPa 0,0 l/m 8,4 km/h (2 Bft) NW 315 0 min 6,6 C 12,3 C 9,0 km/h (2 Bft)
17.09.2019 17:40 21,9 C 13,7 C 61 % 1011,1 hPa 0,0 l/m 10,8 km/h (2 Bft) NW 315 0 min 6,3 C 11,3 C 6,8 km/h (2 Bft)
17.09.2019 17:30 21,9 C 14,3 C 58 % 1011,1 hPa 0,0 l/m 9,5 km/h (2 Bft) W 270 0 min 6,2 C 12,6 C 21,7 km/h (4 Bft)
17.09.2019 17:20 22,0 C 14,6 C 56 % 1011,0 hPa 0,0 l/m 11,1 km/h (2 Bft) W-NW 292 0 min 5,9 C 12,2 C 15,4 km/h (3 Bft)
17.09.2019 17:10 22,0 C 15,0 C 54 % 1011,0 hPa 0,0 l/m 9,3 km/h (2 Bft) W 270 0 min 5,8 C 13,4 C 6,0 km/h (2 Bft)
17.09.2019 17:00 22,1 C 15,1 C 55 % 1011,1 hPa 0,0 l/m 10,8 km/h (2 Bft) W-SW 247 0 min 6,1 C 12,9 C 10,3 km/h (2 Bft)
17.09.2019 16:50 22,2 C 14,9 C 55 % 1011,1 hPa 0,0 l/m 9,2 km/h (2 Bft) W 270 0 min 5,9 C 13,4 C 13,5 km/h (3 Bft)
17.09.2019 16:40 22,3 C 15,1 C 54 % 1011,5 hPa 0,0 l/m 8,4 km/h (2 Bft) NW 315 0 min 5,9 C 14,0 C 6,9 km/h (2 Bft)
17.09.2019 16:30 22,4 C 15,0 C 54 % 1011,5 hPa 0,0 l/m 11,1 km/h (2 Bft) W-NW 292 0 min 5,8 C 12,6 C 11,6 km/h (2 Bft)
17.09.2019 16:20 22,5 C 15,4 C 54 % 1011,6 hPa 0,0 l/m 10,8 km/h (2 Bft) SW 225 0 min 6,1 C 13,2 C 20,1 km/h (4 Bft)
17.09.2019 16:10 22,6 C 15,8 C 53 % 1011,6 hPa 0,0 l/m 10,9 km/h (2 Bft) W-NW 292 0 min 6,2 C 13,6 C 7,9 km/h (2 Bft)
17.09.2019 16:00 22,6 C 15,7 C 53 % 1011,4 hPa 0,0 l/m 9,8 km/h (2 Bft) W 270 0 min 6,1 C 14,0 C 8,0 km/h (2 Bft)
17.09.2019 15:50 22,4 C 15,2 C 55 % 1011,4 hPa 0,0 l/m 10,0 km/h (2 Bft) SW 225 0 min 6,2 C 13,3 C 10,0 km/h (2 Bft)
17.09.2019 15:40 22,2 C 15,4 C 55 % 1011,9 hPa 0,0 l/m 10,3 km/h (2 Bft) SW 225 0 min 6,4 C 13,4 C 17,9 km/h (3 Bft)
17.09.2019 15:30 22,2 C 15,4 C 55 % 1011,9 hPa 0,0 l/m 8,7 km/h (2 Bft) NW 315 0 min 6,4 C 14,2 C 5,5 km/h (1 Bft)
17.09.2019 15:20 22,2 C 15,5 C 54 % 1012,2 hPa 0,0 l/m 8,7 km/h (2 Bft) W-NW 292 0 min 6,2 C 14,3 C 11,6 km/h (2 Bft)
17.09.2019 15:10 22,4 C 15,5 C 53 % 1012,2 hPa 0,0 l/m 10,1 km/h (2 Bft) NW 315 0 min 6,0 C 13,6 C 10,6 km/h (2 Bft)
17.09.2019 15:00 22,4 C 15,8 C 54 % 1012,1 hPa 0,0 l/m 9,8 km/h (2 Bft) N-NW 337 0 min 6,5 C 14,1 C 9,5 km/h (2 Bft)
17.09.2019 14:50 22,4 C 16,1 C 52 % 1012,1 hPa 0,0 l/m 9,2 km/h (2 Bft) W-SW 247 0 min 6,2 C 14,7 C 28,0 km/h (4 Bft)
17.09.2019 14:40 22,3 C 15,5 C 56 % 1012,2 hPa 0,0 l/m 7,7 km/h (2 Bft) NW 315 0 min 6,8 C 14,8 C 9,2 km/h (2 Bft)
17.09.2019 14:30 22,1 C 15,2 C 55 % 1012,2 hPa 0,0 l/m 11,4 km/h (2 Bft) W 270 0 min 6,2 C 12,7 C 24,5 km/h (4 Bft)
17.09.2019 14:20 22,0 C 15,3 C 57 % 1012,3 hPa 0,0 l/m 9,2 km/h (2 Bft) W-SW 247 0 min 6,8 C 13,8 C 6,6 km/h (2 Bft)
17.09.2019 14:10 22,0 C 15,3 C 56 % 1012,3 hPa 0,0 l/m 9,0 km/h (2 Bft) NW 315 0 min 6,6 C 13,9 C 9,2 km/h (2 Bft)
17.09.2019 14:00 22,0 C 15,8 C 54 % 1012,4 hPa 0,0 l/m 9,2 km/h (2 Bft) W 270 0 min 6,5 C 14,4 C 13,2 km/h (3 Bft)
17.09.2019 13:50 22,0 C 15,8 C 53 % 1012,4 hPa 0,0 l/m 9,5 km/h (2 Bft) W-SW 247 0 min 6,2 C 14,2 C 6,8 km/h (2 Bft)
17.09.2019 13:40 22,0 C 15,6 C 56 % 1012,8 hPa 0,0 l/m 10,8 km/h (2 Bft) N-NW 337 0 min 6,9 C 13,4 C 24,3 km/h (4 Bft)
17.09.2019 13:30 21,9 C 15,4 C 56 % 1012,8 hPa 0,0 l/m 8,5 km/h (2 Bft) W-SW 247 0 min 6,7 C 14,3 C 9,8 km/h (2 Bft)
17.09.2019 13:20 21,8 C 15,3 C 58 % 1013,2 hPa 0,0 l/m 9,7 km/h (2 Bft) S-SO 157 0 min 7,1 C 13,6 C 21,9 km/h (4 Bft)
17.09.2019 13:10 21,8 C 15,0 C 58 % 1013,2 hPa 0,0 l/m 10,0 km/h (2 Bft) W-SW 247 0 min 6,8 C 13,1 C 12,7 km/h (3 Bft)
17.09.2019 13:00 21,8 C 15,0 C 61 % 1012,9 hPa 0,0 l/m 7,4 km/h (2 Bft) W 270 0 min 7,5 C 14,4 C 9,8 km/h (2 Bft)
17.09.2019 12:50 21,9 C 14,5 C 62 % 1012,9 hPa 0,0 l/m 8,5 km/h (2 Bft) W 270 0 min 7,3 C 13,3 C 10,8 km/h (2 Bft)
17.09.2019 12:40 21,9 C 14,8 C 62 % 1013,2 hPa 0,0 l/m 6,8 km/h (2 Bft) W-SW 247 0 min 7,6 C 14,6 C 6,6 km/h (2 Bft)
17.09.2019 12:30 21,9 C 14,3 C 63 % 1013,2 hPa 0,0 l/m 7,1 km/h (2 Bft) W-SW 247 0 min 7,4 C 13,9 C 6,4 km/h (2 Bft)
17.09.2019 12:20 21,9 C 14,7 C 62 % 1013,4 hPa 0,0 l/m 7,1 km/h (2 Bft) W-SW 247 0 min 7,5 C 14,3 C 13,7 km/h (3 Bft)
17.09.2019 12:10 21,9 C 14,4 C 63 % 1013,4 hPa 0,0 l/m 8,0 km/h (2 Bft) W 270 0 min 7,4 C 13,5 C 9,7 km/h (2 Bft)
17.09.2019 12:00 21,9 C 14,2 C 63 % 1013,8 hPa 0,0 l/m 9,2 km/h (2 Bft) S 180 0 min 7,3 C 12,6 C 6,3 km/h (2 Bft)
17.09.2019 11:50 22,0 C 14,4 C 62 % 1013,8 hPa 0,0 l/m 6,9 km/h (2 Bft) W-SW 247 0 min 7,2 C 14,1 C 10,8 km/h (2 Bft)
17.09.2019 11:40 21,9 C 14,5 C 63 % 1013,8 hPa 0,0 l/m 7,9 km/h (2 Bft) NW 315 0 min 7,5 C 13,6 C 10,0 km/h (2 Bft)
17.09.2019 11:30 21,8 C 14,7 C 64 % 1013,8 hPa 0,0 l/m 7,9 km/h (2 Bft) W-SW 247 10 min 8,0 C 13,8 C 17,1 km/h (3 Bft)
17.09.2019 11:20 21,7 C 13,9 C 66 % 1014,0 hPa 0,0 l/m 7,1 km/h (2 Bft) W 270 0 min 7,7 C 13,5 C 7,4 km/h (2 Bft)
17.09.2019 11:10 21,7 C 13,3 C 68 % 1014,0 hPa 0,0 l/m 7,2 km/h (2 Bft) NW 315 0 min 7,5 C 12,8 C 8,7 km/h (2 Bft)
17.09.2019 11:00 21,6 C 13,4 C 68 % 1014,1 hPa 0,0 l/m 8,4 km/h (2 Bft) W 270 0 min 7,6 C 12,2 C 12,6 km/h (3 Bft)
17.09.2019 10:50 21,6 C 13,6 C 69 % 1014,1 hPa 0,0 l/m 7,9 km/h (2 Bft) W 270 0 min 8,0 C 12,7 C 12,6 km/h (3 Bft)
17.09.2019 10:40 21,6 C 13,6 C 71 % 1014,1 hPa 0,0 l/m 7,2 km/h (2 Bft) SW 225 0 min 8,4 C 13,1 C 19,3 km/h (3 Bft)
17.09.2019 10:30 21,6 C 13,6 C 70 % 1014,1 hPa 0,0 l/m 6,8 km/h (2 Bft) NW 315 0 min 8,2 C 13,4 C 19,0 km/h (3 Bft)
17.09.2019 10:20 21,7 C 13,8 C 72 % 1013,9 hPa 0,0 l/m 5,6 km/h (1 Bft) W-NW 292 0 min 8,8 C 13,8 C 6,1 km/h (2 Bft)
17.09.2019 10:10 21,7 C 14,0 C 73 % 1013,9 hPa 0,0 l/m 5,3 km/h (1 Bft) W-SW 247 0 min 9,2 C 14,0 C 6,1 km/h (2 Bft)
17.09.2019 10:00 21,6 C 13,6 C 74 % 1014,1 hPa 0,0 l/m 5,6 km/h (1 Bft) S-SW 202 0 min 9,1 C 13,6 C 5,5 km/h (1 Bft)
17.09.2019 09:50 21,6 C 13,2 C 74 % 1014,1 hPa 0,7 l/m 6,4 km/h (2 Bft) SW 225 0 min 8,7 C 13,2 C 15,3 km/h (3 Bft)
17.09.2019 09:40 21,6 C 14,1 C 75 % 1014,3 hPa 0,0 l/m 6,9 km/h (2 Bft) W-SW 247 10 min 9,7 C 13,8 C 7,2 km/h (2 Bft)
17.09.2019 09:30 21,6 C 12,9 C 76 % 1014,3 hPa 0,0 l/m 5,8 km/h (2 Bft) N-NO 22 0 min 8,8 C 12,9 C 5,3 km/h (1 Bft)
17.09.2019 09:20 21,5 C 13,0 C 77 % 1014,2 hPa 0,0 l/m 6,0 km/h (2 Bft) W-NW 292 10 min 9,1 C 13,0 C 5,1 km/h (1 Bft)
17.09.2019 09:10 21,5 C 12,8 C 79 % 1014,2 hPa 0,0 l/m 6,1 km/h (2 Bft) W 270 10 min 9,2 C 12,8 C 9,2 km/h (2 Bft)
17.09.2019 09:00 21,4 C 12,5 C 81 % 1014,1 hPa 0,0 l/m 4,5 km/h (1 Bft) W-SW 247 10 min 9,3 C 12,5 C 3,9 km/h (1 Bft)
17.09.2019 08:50 21,4 C 12,1 C 83 % 1014,1 hPa 0,0 l/m 6,8 km/h (2 Bft) W-NW 292 10 min 9,3 C 11,8 C 10,1 km/h (2 Bft)
17.09.2019 08:40 21,2 C 11,7 C 84 % 1014,0 hPa 0,0 l/m 4,7 km/h (1 Bft) W-SW 247 10 min 9,1 C 11,7 C 3,1 km/h (1 Bft)
17.09.2019 08:30 21,2 C 11,5 C 85 % 1014,0 hPa 0,0 l/m 5,0 km/h (1 Bft) W-NW 292 10 min 9,1 C 11,5 C 9,0 km/h (2 Bft)
17.09.2019 08:20 21,2 C 11,4 C 86 % 1014,1 hPa 0,0 l/m 5,6 km/h (1 Bft) W-SW 247 10 min 9,1 C 11,4 C 5,8 km/h (2 Bft)
17.09.2019 08:10 21,1 C 11,3 C 86 % 1014,1 hPa 0,0 l/m 4,3 km/h (1 Bft) W-SW 247 10 min 9,0 C 11,3 C 7,7 km/h (2 Bft)
17.09.2019 08:00 21,2 C 11,1 C 87 % 1014,1 hPa 0,0 l/m 4,5 km/h (1 Bft) W 270 10 min 9,0 C 11,1 C 2,4 km/h (1 Bft)
_ Min-Zeit 07:00 07:00 14:50 17:10 - 08:10 - - - 04:00 06:10 08:00
Minimum _ 20,6 C 6,4 C 52 % 1011,0 hPa - 4,3 km/h (1 Bft) - - - 3,3 C 6,4 C 2,4 km/h (1 Bft)
_ Max-Zeit 16:00 14:50 08:00 07:10 09:50 14:30 - - 08:00 09:40 14:40 14:50
Maximum _ 22,6 C 16,1 C 87 % 1017,4 hPa 0,7 l/m 11,4 km/h
W (2 Bft)
- - 10 min 9,7 C 14,8 C 28,0 km/h
W-SW (4 Bft)
Durchschnitt _ 21,5 C 11,1 C 73 % 1013,7 hPa #2,1 l/m 7,3 km/h (2 Bft) W-SW - #0 min. 6,2 C 10,3 C 9,5 km/h (2 Bft)

©2019 Markus Bahr